Tracking 19717 objects as of 24-Jun-2019
HD Live streaming from Space Station
objects crossing your sky now

COSMOS 1375 DEB

Track COSMOS 1375 DEB now!
10-day predictions


NORAD ID: 16210
Int'l Code: 1982-055M
Perigee: 963.6 km
Apogee: 1,018.2 km
Inclination: 65.8 °
Period: 104.8 minutes
Semi major axis: 7361 km
RCS: 0.1231 m2 (medium)
Launch date: June 6, 1982
Source: Commonwealth of Independent States (former USSR) (CIS)
Launch site: PLESETSK MISSILE AND SPACE COMPLEX (PKMTR)

Note: This is SATELLITE DEBRIS
aabbcc
Your satellite tracking list
Your tracking list is empty




NASA's NSSDC Master Catalog

Two Line Element Set (TLE):
1 16210U 82055M   19174.63307429 -.00000055 +00000-0 +26535-4 0  9992
2 16210 065.8341 255.2857 0037088 260.3605 205.3375 13.74409006689373
Source of the keplerian elements: AFSPC